This demonstration page uses our WeatherBlox Daily Observations layout. Learn more.

Left ArrowRight Arrow

39.01783, -85.05884

Hourly Observations for August 14, 2021

Temp ( °F °C ) Dew Point ( °F °C ) Humidity (%) Winds ( mph kmh ) Pressure ( in mb ) Visibility ( mi km ) Precip ( " mm )
12:52 am 00:52 Partly Cloudy 70 21.1 66 18.9 87 87 S 3 6 30.09 1019 10 16 0.00 0.00
1:52 am 01:52 Mostly Clear 71 21.7 67 19.4 87 87 Calm 30.11 1020 10 16 0.00 0.00
2:52 am 02:52 Mostly Clear 70 21.1 67 19.4 90 90 WSW 5 7 30.09 1019 10 16 0.00 0.00
3:52 am 03:52 Mostly Clear 70 21.1 67 19.4 90 90 W 5 7 30.10 1019 10 16 0.00 0.00
4:52 am 04:52 Mostly Clear 70 21.1 67 19.4 90 90 NW 7 11 30.11 1020 10 16 0.00 0.00
5:52 am 05:52 Mostly Cloudy 71 21.7 67 19.4 87 87 N 7 11 30.11 1020 10 16 0.00 0.00
6:52 am 06:52 Mostly Cloudy 71 21.7 66 18.9 84 84 N 8 13 30.14 1021 10 16 0.00 0.00
7:52 am 07:52 Mostly Cloudy 72 22.2 65 18.3 79 79 N 6 9 30.15 1021 10 16 0.00 0.00
8:52 am 08:52 Cloudy 73 22.8 62 16.7 69 69 NE 9 15 30.17 1022 10 16 0.00 0.00
9:52 am 09:52 Mostly Cloudy 74 23.3 60 15.6 62 62 NE 8 13 30.18 1022 10 16 0.00 0.00
10:52 am 10:52 Mostly Cloudy 77 25 58 14.4 52 52 NNE 9 15 30.19 1022 10 16 0.00 0.00
11:52 am 11:52 Mostly Cloudy 81 27.2 59 15 47 47 ENE 10 17 30.19 1022 10 16 0.00 0.00
12:52 pm 12:52 Mostly Cloudy 82 27.8 60 15.6 47 47 NE 12 19 30.19 1022 10 16 0.00 0.00
1:52 pm 13:52 Mostly Cloudy 82 27.8 61 16.1 49 49 ENE 9 15 30.18 1022 10 16 0.00 0.00
2:52 pm 14:52 Cloudy 83 28.3 62 16.7 49 49 NE 10 17 30.16 1021 10 16 0.00 0.00
3:52 pm 15:52 Cloudy 83 28.3 61 16.1 48 48 NE 15 24 30.14 1021 10 16 0.00 0.00
4:52 pm 16:52 Mostly Cloudy 84 28.9 56 13.3 38 38 NE 13 20 30.13 1020 10 16 0.00 0.00
5:52 pm 17:52 Mostly Cloudy 84 28.9 54 12.2 36 36 NE 13 20 30.12 1020 10 16 0.00 0.00
6:52 pm 18:52 Mostly Cloudy 82 27.8 53 11.7 37 37 ENE 12 19 30.12 1020 10 16 0.00 0.00
7:52 pm 19:52 Mostly Cloudy 80 26.7 55 12.8 42 42 ENE 10 17 30.12 1020 10 16 0.00 0.00
8:52 pm 20:52 Partly Cloudy 77 25 55 12.8 47 47 E 10 17 30.14 1021 10 16 0.00 0.00
9:52 pm 21:52 Partly Cloudy 77 25 57 13.9 50 50 ENE 10 17 30.16 1021 10 16 0.00 0.00
10:52 pm 22:52 Cloudy 77 25 56 13.3 48 48 NE 9 15 30.17 1022 10 16 0.00 0.00
11:52 pm 23:52 Cloudy 75 23.9 56 13.3 52 52 NE 10 17 30.17 1022 10 16 0.00 0.00

Powered by AerisWeather